Whidbey Island, WA
on Saturday, January 5, 2013

Saturday
Previous Day Next Day
Daily Summary
 ActualAverageRecord
Temperature
Mean Temperature °F °F  
Max Temperature 45°F 44°F 57°F (2006)
Min Temperature 39°F 34°F 18°F (2004)
Degree Days
Heating Degree Days 23    
Moisture
Dew Point 37°F   
Average Humidity 83    
Maximum Humidity 89    
Minimum Humidity 71    
Precipitation
Precipitation 0.07 in in in ()
Wind
Wind Speed 8 mph   
Max Wind Speed 24 mph   
Max Gust Speed 32 mph   
Visibility 10 miles   
Events Rain   
Averages and records for this station are not official NWS values.
Key: T is trace of precipitation, MM is missing value
Source: NWS Daily Summary
Seasonal Weather Averages
Time(PST)TemperatureDew PointHumidity Pressure Visibility Wind DirectionWind SpeedGust SpeedPrecipitationEvents Conditions
12:04 AM 41.0°F 37.4°F 87% 30.17 in 10.0 miles East 5.8 mph - 0.00 in Rain Light Rain
12:56 AM 39.9°F 37.0°F 89% 30.17 in 10.0 miles Calm Calm - 0.00 in   Overcast
1:56 AM 41.0°F 37.9°F 89% 30.18 in 10.0 miles ENE 8.1 mph - N/A   Overcast
2:56 AM 39.9°F 37.0°F 89% 30.19 in 10.0 miles Calm Calm - N/A   Overcast
3:14 AM 41.0°F 37.4°F 87% 30.18 in 10.0 miles Calm Calm - 0.00 in Rain Light Rain
3:56 AM 39.9°F 37.0°F 89% 30.19 in 10.0 miles Calm Calm - 0.00 in   Overcast
4:56 AM 39.9°F 37.0°F 89% 30.18 in 10.0 miles East 5.8 mph - N/A   Overcast
5:56 AM 41.0°F 37.0°F 86% 30.19 in 10.0 miles East 5.8 mph - 0.00 in Rain Light Rain
6:56 AM 42.1°F 37.0°F 82% 30.19 in 9.0 miles East 9.2 mph - 0.00 in Rain Light Rain
7:56 AM 41.0°F 37.9°F 89% 30.18 in 10.0 miles East 9.2 mph - 0.01 in Rain Light Rain
8:56 AM 41.0°F 37.0°F 86% 30.19 in 10.0 miles East 10.4 mph - 0.02 in Rain Light Rain
9:56 AM 42.1°F 37.9°F 85% 30.20 in 10.0 miles East 6.9 mph - 0.01 in Rain Light Rain
10:56 AM 43.0°F 37.0°F 80% 30.18 in 10.0 miles ESE 15.0 mph - 0.02 in Rain Light Rain
11:24 AM 44.6°F 37.4°F 76% 30.16 in 10.0 miles SE 16.1 mph - 0.00 in   Overcast
11:56 AM 44.1°F 37.0°F 76% 30.15 in 10.0 miles SE 17.3 mph 23.0 mph 0.00 in   Overcast
12:56 PM 43.0°F 36.0°F 76% 30.14 in 10.0 miles ESE 16.1 mph - N/A   Overcast
1:56 PM 43.0°F 36.0°F 76% 30.12 in 10.0 miles ESE 17.3 mph 24.2 mph N/A   Overcast
2:56 PM 44.1°F 37.0°F 76% 30.10 in 10.0 miles SE 21.9 mph 32.2 mph N/A   Overcast
3:56 PM 44.1°F 37.0°F 76% 30.10 in 10.0 miles SE 24.2 mph 32.2 mph N/A   Overcast
4:56 PM 44.1°F 37.0°F 76% 30.08 in 10.0 miles SE 23.0 mph - N/A   Overcast
5:56 PM 45.0°F 36.0°F 71% 30.08 in 10.0 miles SE 21.9 mph 29.9 mph N/A   Overcast
6:56 PM 45.0°F 36.0°F 71% 30.12 in 10.0 miles South 11.5 mph - N/A   Overcast
7:56 PM 45.0°F 37.9°F 76% 30.12 in 10.0 miles SSW 10.4 mph - N/A   Overcast
8:20 PM 44.6°F 39.2°F 81% 30.10 in 10.0 miles South 6.9 mph - 0.00 in Rain Light Rain
8:56 PM 43.0°F 39.0°F 86% 30.12 in 6.0 miles SSE 10.4 mph - 0.00 in Rain Light Rain
9:56 PM 42.1°F 39.0°F 89% 30.13 in 10.0 miles SE 3.5 mph - 0.01 in Rain Light Rain
10:07 PM 42.8°F 39.2°F 87% 30.12 in 10.0 miles SE 4.6 mph - 0.00 in   Overcast
10:56 PM 42.1°F 39.0°F 89% 30.14 in 10.0 miles ESE 3.5 mph - 0.00 in   Overcast
11:56 PM 39.9°F 37.0°F 89% 30.14 in 10.0 miles ESE 4.6 mph - N/A   Mostly Cloudy
Moon Phase
Jan. 05 Jan. 11 Jan. 18 Jan. 26 Feb. 03
Sunrise:08:01 AM (PST) Moon Rise:12:57 AM (PST)1/5
Sunset:04:31 PM (PST) Moon Set:11:38 AM (PST)1/5

Copyright © 2014 The Weather Underground, Inc.